Вернуться в каталог

SITRO-AIS-18

АктивенНавигацияSSO
NORAD 61790·PAYLOAD·🇷🇺 Russia
Это название спутника еще не подтверждено официальными источниками.

Запущен Nov 4, 2024 с Vostochny Cosmodrome

Loading…

Ближайшие Пролёты (ближайшие 24 часа)

TLE

СвежийSource: Space-Track

Эпоха: Sep 14, 2026, 14:38 UTC

1 61790U 24199BH  26257.60982979  .00002047  00000-0  17663-3 0  9999
2 61790  97.3182  91.6506 0007164 123.7494 236.4413 14.98276991145425

Отслеживайте SITRO-AIS-18 в реальном времени с AllMySat

Download on the App Store